Wind_Speed
15 15 14 14 13 13 13 13 13 13 12 12 12 12 12 12 12 11 11 11 11 11 11 11 11 11 11 10 10 10 10 10 10 9 9 9 9 10 10 10 11 11 11 11
16 15 13 13 13 13 14 14 14 14 13 13 13 13 12 12 12 11 11 11 12 11 11 11 11 11 11 10 10 10 11 11 11 10 10 10 10 10 10 10 11 11 11 11
16 15 15 15 15 15 15 15 15 15 13 14 14 14 12 12 12 11 11 12 12 11 11 11 11 11 11 11 11 11 11 11 11 11 11 11 11 11 10 10 11 11 11 11
17 16 17 17 16 16 16 16 16 15 15 15 14 13 12 12 12 11 11 12 11 11 11 12 12 11 12 11 12 11 11 11 11 11 11 11 11 11 11 11 11 12 12 12
17 17 18 17 17 16 16 16 16 16 16 16 15 15 12 12 12 12 12 12 12 12 11 12 12 12 12 12 12 12 11 12 12 11 11 11 11 11 11 12 12 12 12 13
17 17 18 17 17 17 17 17 17 17 17 17 15 15 13 12 12 13 12 13 13 12 12 13 12 12 13 13 13 13 13 12 12 12 12 12 12 12 12 12 13 13 13 13
18 18 18 18 19 18 18 18 18 18 18 17 16 16 14 13 14 14 14 14 14 14 13 14 13 13 13 14 14 14 14 13 13 13 13 13 13 13 13 13 14 14 14 14
19 18 18 18 18 18 18 18 18 19 18 17 17 18 16 15 14 14 15 14 14 14 14 14 14 14 14 15 15 15 15 14 14 14 14 15 15 14 14 14 15 15 15 15
18 18 18 18 18 19 18 18 18 19 19 19 19 19 17 15 15 15 15 15 15 14 14 14 15 15 15 16 16 16 16 15 15 15 15 16 16 16 16 16 16 16 16 16
19 18 17 17 18 19 19 19 18 19 19 20 20 19 17 16 15 14 15 15 15 15 15 15 15 16 16 17 17 17 16 16 16 16 16 16 17 18 17 17 17 17 17 16
18 18 17 18 18 19 20 20 20 20 20 21 20 19 17 17 16 16 16 17 16 16 16 16 16 16 17 18 18 18 17 17 16 17 17 17 17 18 19 19 18 18 18 18
19 18 17 18 18 18 19 20 20 21 21 21 22 20 17 17 18 18 17 17 17 17 17 17 17 17 17 17 18 18 18 18 17 17 18 18 18 19 19 19 20 19 19 19
19 19 19 18 18 18 19 19 20 22 22 22 22 20 18 18 18 19 19 18 17 17 17 17 18 18 18 18 18 19 19 19 19 19 19 19 19 20 20 20 20 20 20 20
20 21 20 20 20 19 19 19 20 22 23 23 22 20 19 19 19 19 19 19 18 17 17 18 18 19 19 19 19 19 19 19 19 19 20 20 20 20 21 21 20 20 20 20
21 21 21 21 21 21 21 20 20 21 23 23 22 21 19 19 19 20 20 20 20 19 19 19 20 20 20 20 20 20 21 20 20 20 20 20 20 20 21 21 21 21 21 20
22 22 22 22 22 23 22 21 21 22 23 23 23 22 20 19 20 20 20 21 21 20 20 20 21 21 21 21 22 21 21 21 21 20 20 20 20 20 21 21 21 21 21 21
22 22 22 22 23 24 23 22 22 22 22 22 22 21 21 21 21 21 22 22 22 22 21 21 21 21 22 22 23 22 22 22 21 21 21 21 20 20 21 20 20 21 21 21
22 21 22 22 23 25 22 22 23 24 23 23 22 22 22 22 22 23 23 23 23 23 23 23 22 22 23 23 23 23 23 23 22 22 21 21 21 21 21 21 21 21 22 21
22 22 23 23 24 24 23 24 23 24 24 23 23 24 23 23 23 24 24 24 24 25 25 24 24 25 24 24 24 24 24 24 24 23 23 22 22 22 22 22 22 22 22 22
21 22 23 24 25 25 23 24 23 24 24 23 23 24 24 24 24 24 24 25 25 26 26 26 25 25 25 25 25 25 25 25 25 24 24 23 23 22 22 22 22 22 22 22
21 21 22 23 24 24 23 23 24 23 23 23 23 23 24 24 24 25 25 26 26 26 27 27 27 26 26 26 26 26 26 26 26 25 25 24 23 23 23 23 22 23 23 23
22 22 21 22 23 22 22 23 24 23 23 24 24 24 24 24 25 25 25 26 26 26 27 26 27 27 27 27 27 27 26 25 25 25 25 25 24 24 24 24 24 24 23 24
22 22 22 22 22 22 22 24 24 23 24 24 24 24 24 24 25 25 26 26 26 26 26 27 27 27 27 27 27 27 26 26 26 26 26 26 26 26 26 26 25 25 24 24
21 22 23 23 22 22 21 22 22 23 23 24 25 25 25 25 25 26 26 27 27 27 27 27 27 27 28 28 27 27 27 27 27 27 27 27 27 28 28 28 27 26 26 26
22 23 23 23 23 23 22 22 23 23 24 25 26 26 26 26 26 27 26 27 27 27 27 27 28 28 28 28 27 28 29 28 28 28 28 28 28 28 29 29 29 28 28 28
23 24 24 23 23 24 24 24 25 25 25 26 26 26 25 26 26 27 27 27 27 27 27 27 28 28 28 28 28 28 28 28 28 28 28 29 29 30 30 29 30 30 30 30
Wind_Direction
248 249 250 250 253 254 256 257 258 261 260 263 266 266 265 265 266 266 269 273 277 279 275 274 275 277 284 289 291 291 287 286 286 285 282 281 282 284 287 288 286 282 281 282
247 248 249 250 252 253 256 255 255 258 257 259 263 265 264 261 263 264 267 271 275 277 276 276 276 279 282 283 287 288 289 289 285 284 284 284 286 286 287 286 285 280 280 279
249 249 249 248 249 250 252 254 256 258 258 258 261 262 263 261 261 263 264 268 273 276 279 279 279 276 277 278 282 286 286 286 286 282 281 283 285 288 287 285 285 280 278 280
248 246 247 249 250 251 253 257 259 260 262 263 261 259 259 261 261 261 263 268 274 277 280 279 279 277 277 277 279 282 282 280 283 280 278 280 284 285 286 286 285 282 281 282
248 246 247 249 250 251 253 254 257 260 261 261 261 262 259 258 262 261 264 271 274 274 278 279 277 278 277 278 280 280 281 280 276 275 277 279 282 282 283 285 284 281 280 283
249 248 249 249 250 249 249 249 252 254 258 258 261 263 261 259 260 261 264 271 274 270 272 276 278 276 276 277 279 278 277 274 273 274 275 278 280 281 282 283 283 283 283 283
250 248 246 246 248 249 247 248 251 252 253 255 259 261 264 263 262 261 263 268 272 271 272 276 278 280 279 278 277 278 278 276 276 276 274 274 277 279 281 282 281 281 282 284
250 248 247 247 249 249 248 249 250 253 254 255 256 260 264 263 260 260 262 266 269 269 271 273 276 278 279 278 279 280 277 275 275 277 275 273 274 275 276 279 279 279 279 280
254 251 249 249 248 247 247 250 252 254 257 255 257 261 262 265 265 262 264 266 265 266 268 271 273 275 279 279 279 280 280 277 274 274 275 274 275 275 275 277 279 279 279 279
256 253 251 250 247 247 247 247 249 252 255 256 257 261 266 269 270 268 267 267 266 266 268 270 271 274 276 278 278 280 279 278 277 275 275 275 274 275 276 277 276 278 279 279
256 256 252 250 249 248 247 246 248 250 254 258 260 259 262 264 265 266 268 267 266 266 267 270 272 273 275 275 276 277 277 277 277 277 277 277 277 279 278 277 278 279 278 279
255 257 254 250 250 250 249 249 248 249 253 257 260 260 260 261 263 266 268 265 264 265 266 268 271 274 276 277 277 275 276 275 276 276 276 277 277 278 279 280 279 280 278 279
253 255 255 250 250 250 247 248 250 251 253 256 258 259 259 260 262 265 265 264 263 265 267 269 273 276 277 278 279 277 276 274 274 275 276 278 278 277 277 279 277 278 279 279
253 253 255 255 253 254 250 250 251 253 254 256 259 261 257 260 264 263 261 263 265 267 269 271 274 277 278 278 279 279 277 275 275 277 277 277 279 278 277 277 277 278 279 280
253 252 254 256 254 254 254 253 253 256 258 259 259 259 259 260 262 261 261 263 266 268 270 272 274 276 278 278 279 278 276 277 275 276 278 277 279 278 276 275 275 276 278 280
253 253 254 254 254 254 255 254 255 257 257 258 257 258 261 263 263 263 263 265 268 268 270 273 275 276 277 277 277 277 277 277 274 274 275 276 278 277 274 275 274 274 276 277
252 254 254 255 255 255 255 255 255 256 258 258 258 260 263 262 263 264 265 267 268 267 268 271 274 275 275 276 276 275 275 276 274 274 274 275 276 277 275 275 276 276 278 278
254 256 256 257 255 254 255 255 256 258 259 260 260 260 262 263 263 264 266 267 269 269 269 271 272 273 272 272 273 273 273 275 275 273 273 273 274 275 277 274 274 275 276 277
253 254 256 259 259 258 256 256 257 259 258 260 261 261 262 263 263 264 266 267 268 269 271 273 272 271 270 270 271 271 271 273 274 274 272 272 272 274 276 277 275 274 275 275
251 253 258 261 263 262 260 259 259 260 257 259 262 262 263 263 263 266 266 267 269 271 273 275 274 271 270 269 269 270 270 270 271 272 272 271 272 273 275 276 277 276 276 274
253 257 260 264 265 265 262 259 259 260 261 261 263 264 264 264 266 267 267 267 268 271 273 274 274 271 271 270 270 270 271 271 271 273 273 271 272 273 274 275 275 276 275 273
257 259 261 263 265 264 262 260 259 262 262 262 264 265 266 267 268 269 270 269 269 271 273 273 273 272 271 271 271 271 270 271 272 272 272 272 271 272 273 274 274 275 274 272
260 260 263 263 263 263 264 262 260 264 264 263 265 266 267 269 270 271 272 272 272 273 274 274 273 273 273 273 273 270 269 271 271 272 271 272 273 271 271 272 273 274 273 273
260 260 261 261 261 263 265 264 262 263 265 264 265 268 269 271 271 271 271 272 271 273 273 274 273 273 273 273 271 271 270 270 270 271 272 271 272 271 269 271 271 272 273 273
260 262 264 264 263 261 263 264 263 265 266 266 266 268 268 269 270 270 270 271 272 272 272 273 271 271 271 271 270 270 270 270 271 271 271 271 272 272 270 269 269 270 272 271
260 263 264 264 264 264 265 265 265 266 267 267 267 267 268 268 269 269 270 272 273 272 272 272 272 271 270 270 272 272 271 271 272 272 272 272 272 271 270 269 269 268 269 271
Height
5834 5836 5836 5837 5837 5838 5838 5838 5838 5839 5839 5839 5839 5839 5840 5839 5839 5839 5839 5839 5840 5839 5839 5839 5838 5838 5837 5837 5837 5836 5835 5835 5834 5833 5833 5832 5831 5831 5830 5830 5829 5828 5828 5827
5831 5832 5833 5833 5833 5833 5834 5834 5834 5835 5835 5836 5835 5836 5836 5836 5836 5836 5836 5836 5836 5836 5835 5835 5835 5834 5834 5834 5833 5833 5833 5832 5831 5831 5830 5829 5829 5828 5828 5827 5826 5825 5825 5824
5827 5829 5828 5828 5829 5829 5829 5830 5831 5831 5832 5831 5832 5832 5833 5833 5832 5832 5832 5832 5832 5832 5832 5832 5832 5831 5831 5831 5830 5830 5829 5829 5828 5827 5827 5826 5826 5825 5824 5824 5823 5822 5822 5821
5822 5823 5823 5824 5824 5825 5826 5826 5827 5827 5827 5827 5828 5828 5829 5829 5829 5829 5829 5829 5829 5829 5829 5829 5828 5828 5828 5827 5827 5827 5826 5825 5825 5824 5824 5823 5823 5822 5821 5821 5820 5819 5818 5818
5817 5818 5819 5819 5821 5821 5822 5822 5822 5822 5822 5822 5823 5823 5825 5825 5825 5825 5825 5825 5825 5825 5825 5825 5825 5824 5824 5824 5823 5823 5822 5822 5821 5821 5820 5820 5819 5819 5818 5817 5817 5816 5815 5814
5813 5813 5814 5815 5815 5816 5817 5817 5817 5817 5817 5817 5818 5818 5820 5821 5821 5821 5821 5821 5821 5821 5822 5821 5821 5820 5820 5820 5819 5819 5818 5818 5817 5817 5817 5816 5816 5815 5815 5814 5813 5812 5812 5811
5807 5808 5809 5809 5810 5811 5811 5813 5813 5812 5812 5813 5814 5813 5815 5816 5816 5816 5816 5817 5817 5817 5817 5817 5817 5817 5816 5816 5816 5815 5814 5814 5814 5813 5813 5812 5812 5811 5811 5810 5809 5809 5808 5807
5802 5803 5804 5804 5805 5805 5806 5807 5808 5808 5808 5809 5808 5808 5811 5811 5811 5811 5811 5812 5812 5813 5813 5813 5813 5813 5812 5812 5811 5811 5810 5810 5810 5809 5809 5808 5808 5807 5807 5806 5805 5804 5804 5803
5796 5798 5799 5799 5799 5800 5801 5801 5803 5803 5802 5803 5803 5804 5805 5805 5806 5806 5807 5807 5807 5808 5808 5808 5808 5808 5808 5807 5807 5806 5806 5805 5805 5805 5805 5804 5803 5803 5802 5801 5800 5800 5799 5798
5791 5792 5793 5794 5794 5795 5796 5796 5797 5797 5797 5797 5798 5799 5801 5801 5801 5802 5802 5802 5803 5803 5803 5803 5803 5803 5803 5802 5802 5801 5801 5801 5801 5800 5800 5799 5798 5797 5797 5796 5796 5794 5794 5793
5785 5787 5788 5788 5789 5790 5790 5791 5791 5791 5792 5792 5792 5796 5796 5796 5796 5796 5797 5797 5797 5798 5798 5799 5799 5799 5798 5798 5797 5796 5796 5796 5796 5795 5794 5794 5793 5792 5791 5791 5790 5789 5789 5788
5780 5781 5782 5783 5784 5784 5785 5785 5786 5787 5787 5787 5787 5792 5791 5791 5791 5791 5791 5792 5792 5793 5793 5793 5794 5794 5793 5792 5792 5792 5791 5791 5790 5790 5789 5788 5788 5787 5786 5785 5785 5784 5783 5782
5774 5775 5776 5777 5780 5779 5779 5779 5780 5781 5782 5781 5782 5786 5785 5785 5786 5786 5786 5786 5787 5787 5788 5788 5788 5788 5788 5787 5787 5786 5786 5785 5785 5784 5784 5783 5782 5781 5780 5779 5779 5778 5777 5776
5768 5769 5771 5772 5772 5773 5773 5774 5775 5775 5775 5776 5777 5779 5780 5780 5780 5781 5781 5781 5782 5782 5782 5782 5782 5782 5782 5782 5781 5781 5780 5779 5779 5778 5777 5777 5776 5775 5774 5773 5772 5772 5771 5770
5762 5763 5764 5765 5766 5767 5768 5769 5769 5769 5770 5771 5772 5773 5774 5774 5774 5775 5775 5775 5776 5776 5777 5777 5777 5776 5776 5775 5775 5775 5774 5773 5772 5772 5771 5771 5769 5768 5767 5767 5766 5766 5765 5764
5755 5757 5758 5759 5759 5760 5761 5762 5763 5763 5764 5765 5766 5767 5768 5768 5768 5768 5769 5769 5770 5770 5771 5771 5770 5770 5770 5769 5769 5768 5768 5767 5766 5766 5765 5764 5764 5762 5761 5760 5760 5759 5758 5757
5749 5750 5751 5752 5753 5754 5755 5757 5757 5757 5758 5759 5759 5761 5761 5762 5762 5763 5763 5763 5764 5764 5764 5764 5764 5764 5763 5762 5762 5761 5761 5760 5760 5759 5759 5758 5757 5756 5755 5755 5754 5753 5752 5751
5743 5743 5744 5745 5747 5747 5752 5750 5751 5751 5752 5752 5752 5754 5755 5755 5756 5756 5756 5757 5757 5757 5757 5757 5757 5756 5756 5755 5755 5754 5754 5753 5753 5752 5752 5751 5751 5750 5749 5748 5748 5747 5746 5745
5736 5737 5738 5739 5739 5740 5743 5744 5744 5744 5745 5745 5746 5746 5747 5748 5748 5749 5749 5749 5750 5750 5750 5749 5749 5749 5748 5748 5747 5747 5747 5746 5746 5745 5745 5744 5744 5743 5743 5742 5741 5740 5739 5738
5730 5731 5732 5732 5732 5733 5737 5737 5736 5737 5737 5738 5738 5739 5740 5740 5741 5743 5742 5742 5742 5742 5742 5741 5741 5741 5740 5740 5739 5739 5739 5739 5739 5738 5737 5737 5736 5736 5736 5735 5734 5733 5732 5731
5724 5724 5725 5725 5725 5726 5729 5729 5729 5731 5732 5731 5731 5732 5732 5733 5734 5735 5734 5734 5734 5734 5733 5733 5733 5732 5732 5732 5731 5731 5731 5731 5731 5730 5730 5729 5729 5728 5728 5727 5727 5726 5724 5724
5717 5718 5718 5719 5719 5722 5721 5722 5723 5723 5723 5723 5724 5725 5725 5726 5726 5726 5726 5726 5725 5725 5725 5724 5724 5724 5724 5723 5723 5723 5723 5723 5722 5722 5722 5721 5721 5721 5720 5720 5719 5718 5717 5716
5711 5712 5712 5713 5714 5714 5714 5714 5715 5715 5716 5716 5717 5717 5718 5718 5718 5718 5718 5718 5718 5717 5717 5716 5716 5715 5715 5715 5714 5714 5714 5714 5714 5714 5714 5713 5713 5712 5712 5711 5711 5710 5709 5709
5704 5704 5705 5705 5706 5706 5707 5707 5707 5708 5708 5708 5709 5709 5710 5710 5710 5710 5710 5710 5709 5709 5708 5708 5707 5707 5707 5706 5706 5706 5706 5705 5705 5705 5705 5704 5704 5704 5703 5703 5702 5702 5701 5701
5697 5697 5698 5698 5699 5699 5699 5700 5700 5701 5701 5701 5701 5702 5702 5702 5702 5702 5701 5701 5701 5701 5700 5699 5699 5698 5698 5698 5697 5697 5696 5696 5696 5696 5695 5695 5695 5695 5694 5694 5693 5693 5693 5692
5690 5690 5690 5691 5691 5691 5692 5692 5692 5692 5693 5693 5694 5694 5693 5693 5693 5693 5693 5692 5692 5692 5691 5690 5690 5689 5689 5689 5688 5688 5687 5687 5687 5686 5686 5686 5685 5685 5685 5684 5684 5683 5683 5683